Temp
21 21 18 20 26 28 28 28 28 28 28 25 25 25 26 25 26 25 20 21 20 19 18 19 18 17 17 16 16 16 15 15 14 14 13 13 13 13 14 14 14 14 14 13 13 12 12 13 15
21 20 19 25 27 28 29 28 28 28 26 25 24 24 25 26 23 22 21 19 18 18 18 17 17 17 16 16 15 15 14 14 14 13 13 13 12 12 13 13 13 13 13 13 13 12 12 13 14
21 19 24 27 28 28 28 28 28 27 25 25 26 23 24 25 21 21 20 18 18 18 17 17 17 16 16 15 15 14 14 13 13 13 12 12 12 11 11 12 13 12 11 12 12 12 12 13 13
20 22 24 26 28 28 28 28 28 27 26 25 26 26 22 21 21 20 19 19 18 18 18 17 17 16 16 15 15 14 14 13 13 12 12 12 12 12 11 11 12 12 11 12 12 12 12 13 13
21 24 27 27 27 28 28 28 26 28 28 27 25 26 24 20 19 19 18 19 18 18 17 16 16 16 16 15 15 14 13 13 12 12 12 12 11 11 11 11 11 11 11 10 12 13 12 12 13
25 25 27 28 28 28 28 27 26 27 28 26 24 25 24 20 19 18 18 18 18 18 17 16 15 16 15 14 14 13 13 13 12 12 12 12 12 11 11 11 11 10 10 10 12 13 12 12 13
25 27 27 27 27 27 28 26 27 27 27 27 24 25 23 20 19 19 19 19 18 18 16 15 14 14 14 14 13 13 12 12 12 12 12 11 12 11 11 11 11 10 10 11 12 13 12 12 12
25 26 26 27 27 27 27 26 26 26 27 23 23 25 25 21 21 20 18 17 16 16 16 15 14 14 12 12 12 12 12 12 12 12 11 10 12 11 11 11 11 10 11 11 11 12 12 12 12
24 26 26 27 27 28 28 27 26 24 25 23 23 23 21 20 20 18 18 17 17 16 15 14 14 13 12 11 11 12 12 12 12 11 10 10 10 10 10 10 10 11 11 10 11 12 12 12 12
25 26 27 28 28 28 28 27 27 25 25 23 22 20 20 20 18 19 19 19 17 16 16 14 12 12 13 11 10 10 9 11 11 10 10 10 9 9 9 10 10 10 11 10 11 11 12 12 12
25 26 27 27 27 27 27 27 26 26 27 25 25 24 19 19 19 19 19 18 17 15 15 14 12 13 13 11 10 10 9 9 9 9 10 10 10 9 9 10 10 10 10 10 10 11 11 12 12
25 26 26 27 27 26 27 26 26 25 26 24 24 23 21 20 19 19 18 17 16 15 14 13 12 13 12 10 10 10 10 10 10 9 10 9 9 9 9 10 10 10 10 10 10 12 11 11 12
26 27 26 26 26 26 25 26 26 26 25 23 23 22 21 20 19 18 17 16 15 15 14 12 13 13 12 10 10 10 9 9 9 10 11 9 9 10 9 9 9 10 10 10 10 11 11 11 11
26 26 26 26 26 26 26 26 24 26 24 23 22 21 21 20 19 17 16 15 15 14 13 12 12 11 10 10 10 10 10 9 9 11 10 9 10 10 10 9 9 10 10 10 10 11 11 11 12
25 25 27 26 26 27 25 26 25 26 23 23 21 21 21 19 18 17 16 15 14 14 12 12 11 10 10 10 10 10 10 11 9 9 9 9 10 10 10 9 9 10 10 10 10 10 11 11 12
26 26 26 28 26 25 25 24 26 26 23 23 23 21 20 18 17 17 15 14 14 13 13 12 11 11 11 10 10 10 10 11 11 11 10 9 10 11 10 10 10 10 11 10 11 12 12 13 12
26 25 26 27 27 26 25 25 27 26 24 24 23 21 20 19 17 16 15 14 14 13 12 12 11 11 12 12 11 11 11 11 11 10 10 10 10 10 11 11 11 11 10 10 11 12 13 13 12
25 25 26 25 27 26 26 26 26 26 25 23 23 22 20 19 17 16 15 14 14 13 13 13 12 12 13 12 12 11 11 11 11 10 10 10 10 11 11 11 11 11 10 10 11 12 13 13 13
27 25 25 26 27 25 26 26 26 26 26 25 24 22 20 19 18 16 15 14 14 13 13 12 12 12 12 12 12 12 11 11 11 10 10 10 10 11 11 10 11 10 10 11 11 11 12 12 12
25 25 25 26 26 25 25 25 26 26 26 26 24 22 20 19 17 16 15 14 14 14 13 13 12 13 13 12 12 11 11 10 11 10 10 10 10 11 11 11 10 10 10 10 11 11 12 12 12
25 25 25 25 25 25 25 25 26 26 26 25 23 23 21 19 18 16 15 14 14 14 13 13 13 14 13 13 12 12 11 11 11 11 11 11 11 10 11 10 10 10 11 11 11 12 12 12 12
24 26 25 24 24 24 25 23 25 26 27 27 25 23 22 19 18 16 15 15 15 14 14 13 13 14 13 13 12 11 11 12 11 11 11 11 11 11 11 11 10 10 11 11 12 12 12 12 12
25 26 25 24 24 24 24 24 25 27 26 27 28 25 22 20 18 17 16 15 15 14 14 13 13 14 13 13 13 12 12 11 11 12 11 11 11 11 11 11 11 11 12 12 12 12 12 12 12
26 24 24 24 24 22 25 25 25 26 26 27 27 25 22 19 18 17 16 15 15 14 14 13 13 13 13 12 12 12 12 12 11 11 11 11 11 11 11 11 11 11 12 12 11 11 12 12 12
25 24 22 22 23 23 24 23 25 27 27 27 27 26 21 19 18 17 16 16 15 15 14 14 14 13 13 13 12 12 11 12 12 12 11 11 11 11 11 11 11 11 12 12 12 12 13 13 13
24 24 24 21 22 24 23 23 26 27 27 25 24 23 21 19 18 17 16 16 16 15 14 14 14 14 13 13 12 12 12 12 12 12 12 11 11 11 11 11 11 11 11 12 12 12 12 12 13
25 23 25 24 24 23 25 25 26 27 27 26 24 22 20 19 18 18 17 16 16 15 14 14 14 14 13 13 12 12 12 13 12 12 12 12 12 11 11 11 11 11 11 12 12 12 12 12 12
26 26 22 23 21 21 24 24 25 26 26 25 24 22 20 19 18 18 17 16 16 15 15 14 14 14 13 13 13 12 12 12 13 12 12 13 12 12 12 11 11 11 11 11 11 12 12 12 12
24 24 24 25 25 23 23 24 27 26 26 26 25 22 20 19 19 18 17 16 16 15 15 14 14 14 14 13 13 12 12 12 12 13 12 13 13 12 12 12 12 11 11 11 11 12 12 12 12
26 24 24 23 22 23 24 25 27 27 26 26 25 22 21 20 19 19 18 17 16 16 15 14 14 14 14 13 13 12 12 12 12 12 13 13 13 13 13 12 12 11 12 12 12 12 12 12 12
Height
1539 1541 1542 1544 1539 1527 1518 1517 1519 1519 1523 1530 1531 1532 1530 1532 1532 1537 1539 1539 1541 1542 1543 1542 1542 1542 1541 1540 1539 1538 1537 1535 1533 1532 1531 1529 1529 1530 1529 1528 1528 1528 1529 1529 1530 1531 1531 1532 1534
1541 1541 1544 1538 1531 1522 1511 1517 1517 1517 1525 1529 1532 1532 1533 1530 1535 1537 1539 1538 1540 1541 1540 1541 1539 1539 1539 1537 1537 1536 1535 1533 1531 1530 1529 1527 1526 1525 1525 1525 1525 1525 1526 1526 1528 1528 1530 1530 1532
1542 1543 1540 1527 1520 1522 1519 1515 1517 1521 1526 1527 1527 1531 1531 1531 1535 1536 1537 1537 1539 1539 1539 1538 1537 1536 1535 1534 1533 1532 1531 1529 1528 1527 1526 1524 1523 1522 1521 1522 1521 1521 1522 1524 1525 1526 1528 1528 1529
1543 1545 1540 1529 1518 1517 1522 1517 1517 1519 1524 1525 1525 1527 1532 1533 1534 1535 1534 1535 1536 1538 1537 1536 1534 1533 1531 1530 1529 1528 1526 1525 1523 1522 1521 1520 1519 1518 1517 1517 1517 1517 1519 1521 1522 1523 1525 1526 1527
1543 1538 1527 1525 1520 1520 1519 1520 1520 1516 1516 1520 1528 1524 1530 1533 1531 1532 1532 1533 1534 1535 1534 1533 1530 1529 1528 1526 1525 1523 1522 1520 1518 1517 1516 1515 1513 1513 1512 1512 1513 1513 1515 1517 1519 1521 1522 1523 1525
1537 1534 1526 1520 1514 1517 1518 1520 1520 1517 1515 1520 1526 1524 1528 1531 1531 1531 1531 1530 1531 1530 1529 1529 1527 1525 1524 1522 1520 1519 1517 1515 1513 1511 1509 1508 1507 1506 1507 1507 1509 1510 1512 1513 1515 1518 1520 1520 1522
1535 1526 1523 1517 1518 1519 1517 1521 1519 1515 1514 1517 1524 1524 1526 1529 1529 1528 1528 1528 1528 1526 1526 1526 1524 1522 1519 1517 1516 1515 1512 1510 1507 1505 1502 1501 1500 1499 1501 1502 1504 1506 1508 1510 1511 1515 1517 1518 1520
1532 1529 1522 1518 1518 1517 1516 1519 1518 1517 1515 1519 1523 1519 1520 1525 1524 1526 1527 1528 1526 1525 1525 1524 1521 1520 1516 1515 1511 1509 1507 1504 1500 1497 1495 1494 1493 1494 1495 1496 1499 1502 1504 1507 1508 1511 1513 1515 1517
1532 1527 1520 1515 1516 1511 1511 1515 1516 1517 1516 1520 1521 1521 1522 1521 1521 1525 1526 1526 1525 1524 1523 1521 1519 1516 1512 1510 1508 1504 1501 1498 1495 1491 1490 1489 1490 1491 1491 1492 1494 1497 1500 1503 1505 1507 1510 1511 1514
1526 1520 1515 1511 1512 1511 1508 1510 1512 1516 1515 1518 1520 1520 1520 1520 1520 1524 1524 1524 1523 1522 1520 1518 1514 1511 1508 1507 1504 1501 1497 1493 1490 1488 1486 1485 1486 1486 1487 1488 1490 1493 1496 1499 1502 1504 1506 1508 1512
1520 1518 1513 1511 1511 1509 1507 1506 1510 1510 1507 1509 1512 1514 1518 1518 1519 1521 1521 1521 1520 1518 1517 1515 1510 1507 1506 1505 1502 1499 1494 1491 1488 1486 1484 1482 1481 1481 1482 1485 1486 1489 1492 1496 1499 1502 1504 1508 1508
1518 1515 1514 1511 1510 1509 1506 1506 1507 1508 1505 1509 1508 1511 1513 1514 1516 1517 1518 1518 1518 1516 1514 1511 1508 1505 1503 1500 1499 1496 1492 1490 1487 1485 1482 1481 1480 1479 1477 1478 1482 1485 1489 1492 1495 1500 1502 1504 1506
1512 1509 1509 1508 1508 1507 1506 1505 1505 1503 1505 1507 1507 1507 1509 1511 1514 1515 1515 1515 1514 1514 1511 1508 1505 1503 1500 1497 1496 1492 1489 1488 1485 1481 1480 1479 1478 1476 1474 1475 1476 1480 1484 1488 1491 1496 1499 1501 1505
1506 1506 1505 1505 1504 1505 1503 1501 1505 1499 1501 1505 1505 1504 1505 1508 1511 1513 1512 1512 1512 1511 1509 1506 1503 1501 1498 1496 1492 1489 1487 1485 1484 1480 1478 1478 1476 1475 1473 1474 1473 1475 1481 1486 1490 1494 1497 1500 1505
1504 1505 1501 1501 1501 1500 1502 1500 1500 1497 1498 1500 1502 1501 1502 1505 1508 1510 1510 1509 1509 1508 1507 1505 1502 1500 1496 1493 1491 1488 1486 1482 1482 1481 1478 1477 1475 1474 1474 1473 1474 1477 1479 1483 1488 1491 1496 1500 1504
1499 1497 1497 1486 1497 1498 1501 1501 1493 1494 1495 1494 1495 1497 1498 1502 1504 1506 1506 1506 1506 1505 1505 1503 1501 1498 1496 1491 1489 1486 1483 1481 1479 1477 1476 1475 1474 1473 1473 1473 1474 1476 1479 1482 1487 1492 1496 1500 1504
1489 1497 1487 1486 1489 1489 1495 1491 1486 1490 1492 1490 1489 1491 1494 1498 1500 1502 1504 1504 1503 1503 1503 1501 1499 1497 1493 1490 1487 1484 1482 1479 1477 1475 1473 1473 1472 1472 1472 1473 1474 1476 1478 1482 1486 1491 1495 1499 1504
1489 1489 1483 1489 1483 1488 1485 1485 1483 1485 1483 1485 1485 1487 1490 1493 1496 1499 1501 1501 1501 1501 1501 1499 1498 1495 1493 1491 1487 1484 1480 1478 1476 1474 1471 1470 1469 1469 1470 1472 1473 1475 1479 1482 1485 1489 1494 1498 1503
1477 1484 1484 1479 1481 1487 1482 1477 1477 1478 1477 1476 1478 1481 1484 1488 1493 1496 1498 1499 1499 1499 1500 1498 1497 1495 1492 1491 1488 1485 1480 1477 1475 1471 1467 1464 1464 1466 1468 1470 1473 1476 1479 1482 1485 1489 1494 1497 1500
1482 1483 1482 1477 1481 1484 1479 1475 1471 1471 1468 1469 1472 1475 1479 1485 1490 1493 1495 1497 1497 1499 1498 1498 1497 1495 1492 1491 1488 1485 1482 1479 1475 1472 1467 1463 1463 1465 1467 1469 1472 1476 1479 1482 1486 1489 1493 1497 1499
1478 1479 1479 1482 1478 1479 1476 1474 1463 1463 1462 1464 1467 1469 1473 1478 1484 1489 1492 1495 1496 1498 1498 1498 1496 1494 1492 1490 1490 1486 1482 1480 1478 1474 1471 1466 1465 1466 1467 1469 1473 1475 1480 1483 1485 1489 1492 1496 1500
1475 1471 1476 1479 1483 1486 1474 1484 1463 1457 1454 1454 1460 1464 1467 1473 1480 1485 1489 1492 1494 1496 1497 1497 1496 1494 1493 1491 1490 1487 1484 1483 1480 1477 1474 1471 1468 1466 1467 1468 1472 1475 1480 1481 1484 1488 1492 1496 1499
1469 1465 1473 1475 1478 1479 1475 1477 1460 1449 1455 1449 1449 1454 1462 1469 1475 1480 1485 1489 1492 1494 1496 1496 1496 1494 1494 1492 1490 1490 1486 1483 1481 1479 1476 1473 1472 1470 1468 1469 1471 1474 1477 1480 1484 1488 1493 1498 1501
1465 1472 1475 1476 1476 1486 1466 1467 1458 1450 1450 1446 1446 1451 1458 1465 1473 1479 1484 1488 1491 1493 1495 1495 1496 1495 1495 1494 1492 1490 1486 1484 1480 1478 1478 1477 1475 1474 1472 1472 1473 1475 1478 1481 1486 1490 1494 1499 1504
1462 1470 1481 1484 1480 1480 1462 1470 1455 1444 1443 1443 1445 1448 1456 1462 1469 1475 1481 1486 1489 1491 1494 1495 1495 1496 1495 1495 1493 1491 1489 1486 1482 1480 1478 1479 1479 1477 1475 1475 1476 1477 1479 1483 1487 1493 1497 1501 1507
1457 1459 1466 1484 1480 1465 1462 1470 1448 1439 1442 1445 1447 1449 1453 1460 1466 1472 1479 1484 1487 1490 1492 1494 1495 1496 1495 1496 1494 1492 1490 1490 1486 1484 1483 1483 1480 1480 1480 1479 1480 1481 1484 1486 1491 1496 1500 1504 1509
1447 1459 1449 1460 1456 1471 1455 1448 1440 1437 1436 1441 1445 1449 1453 1459 1465 1471 1477 1482 1486 1488 1491 1493 1494 1495 1495 1495 1495 1494 1492 1491 1490 1489 1488 1486 1484 1484 1483 1484 1484 1487 1489 1492 1494 1498 1503 1507 1514
1435 1444 1463 1458 1477 1478 1456 1454 1446 1437 1435 1439 1444 1448 1454 1458 1463 1470 1475 1480 1484 1487 1490 1492 1493 1495 1495 1495 1495 1494 1494 1493 1493 1494 1493 1491 1490 1488 1487 1488 1489 1491 1493 1496 1499 1502 1507 1511 1516
1438 1442 1444 1443 1445 1460 1466 1450 1430 1434 1435 1435 1439 1446 1452 1456 1461 1466 1473 1478 1482 1485 1488 1490 1492 1494 1494 1495 1496 1495 1495 1496 1495 1496 1496 1495 1494 1493 1492 1493 1493 1494 1497 1499 1502 1505 1509 1512 1516
1422 1431 1437 1447 1456 1450 1448 1443 1427 1431 1435 1436 1438 1444 1448 1453 1460 1466 1470 1475 1479 1483 1486 1489 1491 1492 1494 1494 1496 1496 1497 1497 1498 1499 1499 1499 1499 1498 1498 1496 1497 1498 1500 1503 1506 1510 1512 1514 1518
Wind_Speed
12 11 7 3 7 6 8 2 5 6 4 2 4 3 5 6 5 6 1 3 3 4 8 10 10 14 17 17 17 18 19 19 20 22 23 22 21 18 16 17 17 19 18 14 12 12 12 13 13
10 7 3 5 7 8 3 3 6 7 2 4 4 4 5 4 4 3 3 5 4 4 8 8 13 13 16 16 18 19 20 21 22 24 25 25 22 21 18 17 18 18 18 15 14 12 12 11 14
8 5 11 5 6 9 5 4 5 3 6 6 4 4 1 1 4 3 4 5 5 6 7 10 14 13 14 18 19 21 21 22 23 25 26 26 23 23 23 18 19 17 16 15 14 11 12 14 14
4 5 7 9 8 1 7 9 7 7 5 8 7 5 2 5 4 5 5 5 6 7 10 13 15 15 17 20 21 22 23 24 25 25 26 26 27 25 24 23 18 20 16 15 14 13 13 14 14
4 8 10 8 8 5 7 10 9 9 7 4 6 4 3 4 7 6 5 6 7 9 12 12 18 19 19 21 22 23 24 26 26 27 27 28 29 27 26 25 21 20 19 17 17 16 17 16 16
11 6 9 11 3 4 7 7 8 9 8 3 5 6 5 5 6 6 7 7 9 10 14 14 14 18 20 22 23 25 25 26 28 30 32 33 34 29 27 26 23 20 19 20 19 17 20 16 15
14 8 14 12 11 9 4 6 9 8 9 8 4 6 2 7 9 9 9 10 10 12 12 10 14 16 20 21 22 23 25 28 32 34 33 28 29 27 25 26 24 20 17 16 18 19 20 17 17
12 9 16 13 12 10 3 4 6 9 9 3 6 5 6 9 9 10 7 5 5 7 8 11 14 13 14 13 21 23 26 27 29 31 29 24 23 22 22 25 22 19 20 16 15 18 18 21 18
8 11 12 12 13 12 6 11 4 5 10 8 9 9 5 7 7 8 7 6 6 9 11 12 12 12 15 15 17 21 23 23 22 19 19 21 14 13 14 18 21 23 22 18 14 18 21 21 20
13 12 15 9 12 14 18 11 15 7 8 12 10 9 11 9 9 9 8 7 8 9 11 12 11 15 18 13 15 16 16 19 14 13 14 15 13 13 15 17 17 19 21 18 16 18 20 20 17
15 15 14 15 16 19 21 15 12 12 12 11 10 12 12 11 12 11 9 7 7 8 10 10 12 17 17 12 14 12 16 14 12 11 10 11 13 15 14 14 18 19 19 17 14 14 16 15 19
15 18 19 18 14 14 9 8 10 14 14 4 7 7 14 15 14 11 8 5 6 8 9 9 11 16 16 14 10 13 13 12 10 8 7 6 6 10 13 17 14 21 21 18 15 14 16 19 19
14 18 16 16 14 10 5 9 9 12 9 11 9 11 15 15 13 10 7 4 5 8 9 9 13 13 12 11 9 11 11 8 9 9 7 6 5 5 6 10 14 20 19 17 15 13 14 17 18
14 12 15 13 12 7 8 4 4 9 4 10 12 14 14 15 13 10 7 4 4 6 7 9 10 10 9 9 10 10 10 8 8 7 6 7 5 4 1 4 10 16 16 14 14 13 15 16 17
13 14 13 14 11 6 6 9 10 11 5 11 15 14 15 15 13 11 7 4 3 4 6 8 9 8 8 10 10 9 8 10 8 7 7 7 5 3 2 6 9 12 16 16 13 14 16 17 16
14 15 15 13 10 6 7 10 10 9 10 15 15 17 17 16 15 11 8 5 2 2 5 8 7 8 10 10 10 9 9 9 9 8 8 8 7 6 4 7 11 13 14 14 14 15 16 17 18
15 15 19 10 12 6 11 13 8 10 12 16 16 18 18 17 16 13 10 6 1 2 4 6 7 8 10 9 10 10 10 9 8 6 7 8 9 9 7 7 10 13 13 14 16 17 17 18 17
16 13 12 13 10 10 12 14 14 17 16 15 17 19 20 20 18 15 12 7 2 1 3 5 6 9 11 10 12 12 10 8 7 8 11 9 8 9 9 9 11 13 13 14 15 18 17 16 16
13 12 14 11 6 10 15 15 15 18 21 16 18 19 22 20 17 15 13 8 4 1 2 4 5 8 10 8 11 13 12 8 6 8 11 12 11 8 10 10 13 12 12 12 15 15 16 16 17
15 17 17 11 10 9 16 17 18 17 19 16 16 19 21 19 19 17 14 9 5 2 1 2 4 7 10 8 11 11 8 7 10 14 9 9 6 9 10 13 14 14 13 13 14 14 13 14 17
19 17 14 12 12 12 16 18 13 8 11 13 14 15 18 22 23 20 17 12 7 4 3 0 3 7 10 11 9 12 9 8 8 14 22 21 5 5 9 13 14 14 13 13 16 15 14 17 19
20 15 15 14 13 12 4 15 14 11 12 12 14 15 17 21 22 21 18 14 10 6 5 2 3 7 8 11 9 12 9 6 5 8 14 15 15 9 9 12 15 16 14 16 18 17 17 19 21
16 13 12 14 12 12 16 8 10 6 10 9 8 13 16 20 24 23 20 15 11 9 7 3 2 5 8 10 11 10 10 10 4 5 11 18 12 14 12 12 14 15 16 18 20 20 18 20 25
14 8 9 8 11 12 15 10 10 3 4 6 6 1 11 18 23 22 19 16 13 10 8 4 2 4 5 6 10 12 14 14 11 2 3 12 13 12 9 11 15 13 16 19 20 19 23 26 21
16 13 9 10 9 11 2 6 11 10 8 9 9 6 9 19 25 24 22 18 15 13 10 6 3 3 4 5 7 10 12 15 15 9 5 10 9 12 14 14 16 15 16 20 20 24 24 27 24
19 17 11 10 11 11 6 6 4 2 6 7 5 5 11 21 25 25 23 18 15 14 12 8 4 4 4 6 6 8 12 11 14 14 14 13 10 13 13 15 19 19 17 22 22 23 25 24 22
14 15 16 15 14 8 12 6 11 6 7 4 3 6 15 23 25 25 22 18 16 15 13 10 6 5 5 5 6 7 10 12 15 14 15 16 19 15 10 15 22 19 18 21 22 24 22 18 19
21 15 10 10 13 13 9 7 6 3 5 4 7 10 17 23 24 24 22 19 17 15 13 11 8 5 6 5 6 6 8 9 11 11 13 11 12 16 15 14 18 16 17 19 20 21 20 18 15
12 16 13 13 13 12 9 5 5 2 3 2 8 13 20 23 25 25 22 19 18 16 14 11 10 7 7 6 6 7 8 8 9 10 12 14 15 18 15 15 13 14 17 21 19 18 16 14 16
22 22 21 11 15 10 10 9 4 4 1 1 10 16 22 23 24 23 22 21 20 18 15 12 11 9 8 8 7 6 8 8 10 11 12 13 17 19 18 17 18 19 16 16 16 18 18 16 17
Wind_Direction
135 139 155 204 237 239 250 174 333 281 220 109 139 222 294 316 302 332 35 200 204 193 231 280 282 275 274 280 289 293 289 289 289 292 296 297 296 296 287 281 272 267 264 259 252 249 241 238 221
145 142 209 263 254 240 195 38 301 356 93 175 193 208 244 291 228 250 255 218 214 246 271 253 286 293 272 278 274 276 276 278 278 283 286 288 290 294 293 275 269 261 259 255 252 244 249 234 225
148 212 265 250 256 264 328 12 318 340 196 214 223 259 290 210 182 178 194 189 225 257 268 276 294 274 268 272 275 277 282 277 275 277 278 281 283 286 288 288 264 253 254 252 248 240 239 226 231
165 227 234 253 256 28 297 323 316 283 217 229 255 247 197 190 169 195 201 227 252 271 272 277 276 271 268 273 276 278 279 278 277 276 278 279 280 275 272 277 268 250 245 242 242 228 231 242 226
224 255 263 251 263 286 286 298 294 265 250 228 232 269 273 242 216 221 238 267 269 275 278 283 286 282 273 277 279 280 279 278 277 277 276 278 278 274 270 261 267 248 241 247 238 229 232 223 227
241 269 253 255 259 285 310 313 276 256 262 170 238 264 278 215 208 230 255 271 279 281 291 289 287 286 277 278 277 280 280 279 279 279 280 280 277 272 262 259 252 246 244 245 244 232 224 226 213
251 259 268 290 279 284 357 327 259 278 265 237 247 261 312 221 217 249 265 281 283 295 300 294 295 287 290 284 280 280 279 279 281 283 280 275 271 263 254 253 247 242 239 249 241 226 220 228 218
254 273 268 260 275 297 354 290 284 262 274 137 198 255 256 215 244 252 249 244 269 300 299 298 300 290 287 284 288 283 286 285 283 280 277 271 269 262 251 245 238 229 231 235 243 215 219 225 219
240 259 259 267 278 291 289 281 223 262 242 224 218 251 246 221 252 207 221 255 283 299 303 302 298 289 295 293 290 294 294 290 290 279 275 272 273 254 248 243 228 226 230 233 238 217 215 219 218
227 250 262 282 292 285 293 280 293 232 223 235 236 236 242 242 206 213 237 263 285 300 302 300 292 303 308 300 295 302 300 305 304 283 274 269 260 249 241 236 232 229 227 225 230 222 216 220 215
226 253 276 271 271 290 288 285 263 255 263 254 250 231 220 213 209 221 239 259 280 300 311 301 300 315 310 294 296 296 301 305 308 306 295 273 264 249 244 239 238 232 222 222 227 228 220 211 213
240 250 260 269 289 291 277 269 250 244 273 307 240 233 209 211 212 219 229 257 292 307 315 311 308 313 309 310 302 292 309 295 312 297 295 299 278 275 263 244 226 219 220 219 213 207 211 210 195
231 263 258 268 273 259 260 246 273 271 286 250 240 216 215 214 212 212 214 248 301 321 317 320 315 316 318 316 298 302 305 305 299 294 283 278 274 300 284 229 218 206 212 211 206 204 207 197 186
245 258 270 265 253 219 236 234 248 294 260 239 227 223 219 212 208 208 214 240 296 318 321 322 323 317 315 320 317 315 310 310 310 305 285 275 283 282 303 217 201 186 183 192 195 195 192 181 184
251 255 241 236 220 226 239 248 255 287 236 243 235 226 217 210 207 210 215 223 296 317 319 333 331 318 322 326 317 309 304 314 295 295 284 265 260 267 192 158 159 171 182 180 181 177 173 176 177
230 237 251 196 203 176 219 270 271 289 231 238 232 227 215 211 207 207 210 209 281 318 315 342 328 326 324 319 319 310 296 314 306 288 267 255 257 257 222 174 166 166 171 171 170 171 173 177 180
227 250 232 235 200 198 216 276 281 295 261 263 243 228 219 211 205 204 205 208 234 305 323 341 333 341 351 337 338 324 329 322 319 307 285 264 250 248 241 205 180 173 170 169 165 170 171 178 179
232 224 243 257 188 225 253 256 271 279 258 261 255 235 223 214 209 204 199 197 191 282 321 353 338 353 353 349 344 342 343 331 334 315 308 275 257 247 235 206 184 175 168 170 164 160 169 178 179
265 257 257 253 269 264 275 285 287 282 276 259 256 230 222 215 205 198 193 192 188 252 295 315 333 352 359 360 353 358 357 358 360 350 336 324 235 234 211 194 192 176 175 168 167 162 170 171 169
232 243 249 254 267 278 289 284 292 289 271 262 246 227 218 207 198 194 191 189 184 203 226 307 335 352 8 355 350 2 7 31 44 41 35 16 169 193 191 190 180 174 178 168 171 166 166 169 168
229 242 249 259 292 274 266 273 287 288 246 248 242 232 215 206 196 191 189 188 178 187 191 224 3 30 30 33 9 26 31 53 69 58 55 54 95 164 186 179 167 170 174 185 179 174 171 165 166
233 221 259 259 270 283 345 293 293 271 264 231 230 223 214 202 196 189 185 184 177 177 175 129 37 60 35 45 24 25 31 40 48 58 55 58 65 121 131 170 177 178 183 195 179 175 165 164 162
242 236 234 258 271 285 267 256 291 260 277 262 242 215 210 198 191 187 183 179 174 172 172 153 73 65 57 42 35 34 27 10 30 70 77 55 59 87 99 136 159 163 173 180 177 169 159 161 153
226 204 227 248 259 254 260 260 280 278 300 282 253 89 195 188 187 184 181 176 175 171 169 159 111 83 70 51 37 44 44 43 39 51 68 66 74 89 94 120 140 148 156 164 159 154 154 155 151
222 214 229 223 221 252 142 256 259 305 292 290 290 298 185 179 179 179 178 181 178 177 174 164 137 102 84 60 45 47 49 44 25 32 59 110 80 75 73 109 140 139 135 145 152 148 150 155 154
202 210 235 232 246 254 158 259 233 327 309 287 290 284 171 173 177 178 180 182 181 178 177 170 138 124 101 77 58 58 60 43 40 77 93 99 69 67 67 107 130 129 131 144 146 148 156 162 147
185 219 228 255 268 272 275 214 254 255 242 219 205 150 163 169 174 177 180 182 181 179 180 175 156 138 117 92 73 71 67 63 69 76 78 86 78 66 84 109 125 118 105 133 141 145 148 165 157
226 201 203 224 243 241 244 240 262 276 33 116 170 156 164 168 171 176 180 182 180 177 177 177 165 147 136 114 91 83 79 67 77 79 72 79 89 72 70 123 134 117 116 128 134 149 143 151 153
189 223 214 252 226 233 248 259 84 287 47 56 156 163 167 173 176 176 179 183 178 176 177 173 167 157 144 129 109 95 95 82 81 76 73 68 90 105 82 110 110 104 128 126 123 135 146 151 157
202 213 206 221 212 245 276 263 116 261 120 270 160 169 173 172 178 180 177 181 180 179 181 178 171 164 153 142 135 112 106 102 93 87 90 84 89 99 94 94 97 99 122 149 140 132 129 145 139